www.pogodaiklimat.ru

Погода и климат >> Архив погоды >> Иран >> Энзели


ПОГОДА в Энзели

  • Прогноз погоды в Энзели
  • Монитор погоды в Энзели

АРХИВ ПОГОДЫ в Энзели

Время (UTC), дата Ветер
(напр.,м/с)
 
Видим.   Явления Облачность Т
(С)
Тd
(С)
f
(%)
Тe
(С)
Тes
(С)
Комфортность P
(гПа)
Po
(гПа)
Тmin
(С)
Tmax
(С)
R
(мм)
R24
(мм)
S
(см)
15 14.07 С 3 6000 м слаб. дождь 10/6 450 м
[Cb calv As op]
+22.6 +22.1 97 +30 +30 очень
душно
1009.2 1011.9 +24.5
18 14.07 СЗ 3 6000 м слаб. дождь 10/6 360 м
[Cb calv As op]
+22.8 +22.3 97 +31 +31 очень
душно
1010.5 1013.2 6
21 14.07 Ю 1 6000 м дождь 10/6 360 м
[Cb calv As op]
+21.6 +21.4 99 +28 +28 очень
душно
1010.2 1013.0
00 15.07 З 3 6000 м слаб. дождь 10/8 300 м
[Frnb As op]
+21.2 +20.9 98 +27 +27 душно 1009.0 1011.7 11
03 15.07 З 2 7000 м в посл. час дождь 10/8 300 м
[Frnb As op]
+21.3 +21.1 99 +27 +27 душно 1008.7 1011.5 +21.1
06 15.07 З 1 10 км {дождь} 10/6 600 м
[Sc As op]
+22.3 +20.2 88 +29 +30 очень
душно
1008.6 1011.3 2
09 15.07 СВ 1 10 км 9/5 600 м
[Sc As op]
+27.0 +22.2 75 +35 +39 очень
душно
1007.2 1009.9 666
12 15.07 В 3 10 км 5/3 750 м
[Cu med, cong Ac trans]
+27.7 +20.2 64 +34 +39 очень
душно
1005.5 1008.2
15 15.07 В 2 10 км 6/4 750 м
[Cu med, cong Ac As]
+25.8 +22.1 80 +33 +34 очень
душно
1004.5 1007.2 +28.5 666
18 15.07 ЮВ 2 10 км 9/8 750 м
[Cb calv As op]
+25.0 +22.5 86 +33 +33 очень
душно
1004.5 1007.2
21 15.07 ЮЗ 1 10 км 9/5 900 м
[Sc As op]
+24.4 +22.7 90 +32 +32 очень
душно
1003.3 1006.0
00 16.07 штиль 0 10 км 9/5 900 м
[Sc As op]
+24.0 +22.8 93 +32 +32 очень
душно
1002.9 1005.6
03 16.07 штиль 0 10 км 10/9 450 м
[Frnb As op]
+23.8 +22.9 95 +32 +32 очень
душно
1004.3 1007.0 +23.7 666
06 16.07 ЮВ 1 10 км в посл. час дождь 10/6 600 м
[Sc As op]
+24.3 +30.1 100 +34 +35 очень
душно
1005.1 1007.8 3
09 16.07 СВ 2 10 км 8/4 600 м
[Cu med, cong Ac As]
+29.3 +24.8 77 +42 +48 опасность
перегрева
1004.1 1006.8
12 16.07 В 2 10 км 4/1 750 м
[Cu hum Ac trans]
+29.0 +30.0 100 +51 +58 опасность
перегрева
1002.8 1005.5
15 16.07 В 2 10 км 3/3 600 м
[Cb calv]
+28.4 +22.9 72 +38 +38 очень
душно
1002.6 1005.3 +30.1
18 16.07 ЮВ 1 10 км 3/0
[Ac trans]
+26.7 +23.8 84 +37 +37 очень
душно
1003.4 1006.1
21 16.07 ЮВ 1 10 км ясно +25.3 +23.7 91 +34 +34 очень
душно
1004.4 1007.1
00 17.07 З 1 10 км 10/6 900 м
[Sc As op]
+25.2 +23.4 90 +34 +34 очень
душно
1005.0 1007.7
03 17.07 ЮЗ 1 7000 м слаб. дождь 10/8 450 м
[Cb calv As op]
+24.2 +23.7 97 +33 +33 очень
душно
1006.4 1009.1 +24.2
06 17.07 З 1 10 км {дождь} 10/5 600 м
[Sc As op]
+26.1 +30.0 100 +39 +41 очень
душно
1007.3 1010.0 7
09 17.07 СЗ 3 10 км 8/5 900 м
[Sc Ac As]
+28.7 +23.4 73 +39 +44 очень
душно
1006.8 1009.5
12 17.07 СЗ 1 10 км 8/5 900 м
[Sc Ac As]
+30.1 +30.0 99 +55 +59 опасность
перегрева
1005.7 1008.4
15 17.07 В 2 10 км 8/5 750 м
[Sc Ac As]
+28.7 +21.2 64 +36 +36 очень
душно
1005.4 1008.1 +30.5 666
18 17.07 ЮЗ 1 10 км 6/6 900 м
[Sc]
+26.5 +23.4 83 +36 +36 очень
душно
1006.2 1008.9
21 17.07 Ю 1 10 км 6/6 900 м
[Sc]
+25.3 +23.0 87 +34 +34 очень
душно
1005.5 1008.2
00 18.07 ЮЗ 1 10 км 6/6 900 м
[Sc]
+24.4 +22.3 88 +32 +32 очень
душно
1005.2 1007.9
03 18.07 СЗ 3 10 км 4/4 1200 м
[Sc]
+26.6 +23.9 85 +37 +37 очень
душно
1006.5 1009.2 +24.3 666
06 18.07 СЗ 3 10 км 1/1 600 м
[Cu med, cong]
+28.1 +20.2 62 +34 +45 очень
душно
1007.0 1009.7
09 18.07 С 2 10 км 1/0
[Ac trans]
+29.8 +23.5 69 +40 +60 опасность
солнечного
удара
1006.1 1008.8 666
12 18.07 В 2 10 км ясно +29.3 +20.1 58 +36 +47 очень
душно
1004.6 1007.3
15 18.07 В 2 10 км 1/0
[Ci fib]
+28.2 +22.7 72 +37 +38 очень
душно
1004.4 1007.1 +30.7
18 18.07 СВ 1 10 км 6/5 600 м
[Cb calv Ac As Cs]
+26.2 +22.1 78 +34 +34 очень
душно
1004.8 1007.5
21 18.07 штиль 0 10 км 5/4 750 м
[Sc Ac As Cs]
+26.2 +21.9 77 +34 +34 очень
душно
1004.7 1007.4
00 19.07 штиль 0 10 км 5/4 750 м
[Sc Cs]
+25.3 +21.8 81 +33 +33 очень
душно
1005.2 1007.9
03 19.07 З 1 10 км 8/5 600 м
[Cb calv Ac As Cs]
+26.4 +23.1 82 +35 +36 очень
душно
1007.8 1010.5 +25.3
09 19.07 С 2 10 км 3/3 750 м
[Cu med, cong]
+29.4 +23.6 71 +40 +54 опасность
солнечного
удара
1009.6 1012.3
12 19.07 С 3 10 км ясно +30.0 +30.1 100 +55 +64 опасность
перегрева
1008.9 1011.6
15 19.07 С 1 10 км ясно +29.1 +21.9 65 +37 +38 очень
душно
1009.1 1011.8 +30.3
18 19.07 СЗ 3 10 км 4/0
[Ac trans]
+28.1 +20.9 65 +35 +35 очень
душно
1010.4 1013.1
21 19.07 ЮЗ 2 10 км 4/0
[Ac trans]
+25.1 +20.6 76 +31 +31 очень
душно
1011.1 1013.8
00 20.07 ЮЗ 2 10 км 5/0
[Ac trans]
+24.3 +21.0 82 +31 +31 очень
душно
1011.3 1014.0
03 20.07 З 1 10 км 8/0
[Ac trans]
+26.4 +20.5 70 +33 +34 очень
душно
1013.5 1016.2 +24.3
06 20.07 СЗ 2 10 км 4/0
[Ac trans]
+30.5 +30.0 97 +56 +66 опасность
перегрева
1014.4 1017.1
09 20.07 В 3 12 км 4/0
[Ac trans]
+32.4 +20.0 48 +39 +51 опасность
солнечного
удара
1014.6 1017.3 666
12 20.07 СВ 4 12 км 4/0
[Ci sp]
+32.9 +30.0 85 +60 +67 опасность
перегрева
1014.4 1017.1
15 20.07 СВ 2 10 км 3/0
[Ci sp]
+30.2 +19.9 54 +36 +37 очень
душно
1014.4 1017.1 +33.2 666
18 20.07 З 2 10 км ясно +27.1 +20.9 69 +34 +34 очень
душно
1015.0 1017.7
21 20.07 ЮЗ 1 10 км ясно +25.0 +19.6 72 +30 +30 душно 1015.0 1017.7
00 21.07 ЮЗ 1 10 км ясно +23.3 +18.6 75 +29 +29 душно 1014.4 1017.1
03 21.07 ЮЗ 2 10 км 1/0
[Ac trans]
+24.2 +17.9 68 +28 +30 душно 1014.8 1017.5 +22.6 666
06 21.07 ЮЗ 2 10 км 1/1 750 м
[Cu hum]
+31.7 +30.1 91 +58 +70 опасность
перегрева
1014.2 1016.9
09 21.07 СВ 4 10 км ясно +32.3 +23.0 58 +42 +56 опасность
перегрева
1012.7 1015.4
12 21.07 СВ 3 10 км ясно +33.0 +21.2 50 +41 +50 опасность
перегрева
1011.1 1013.8

 

Местоположение метеостанции Энзели (Иран): широта 37.47 долгота 49.47 высота над уровнем моря -26 м.

В архиве по умолчанию представлена погода в Энзели за последнюю неделю. Архивные данные за месяц целиком и за предыдущие месяцы, начиная с января 2011 года, Вы можете получить, выбрав интересующий диапазон дат из раскрывающегося списка и нажав кнопку "Ввод!".


*Определитесь, кто Вы:
робот инопланетянин человек

Внимание! Время в таблицах - всемирное. Для получения местного времени необходимо прибавить поправку, которая равна 3.5 ч.

Смотрите также архив погоды в соседних городах и на ближайших метеорологических станциях:

Погода в Реште (Иран) (33 км)
Погода в Астаре (Азербайджан) (121 км)
Погода в Рамсаре (Иран) (124 км)
Погода в Зенджане (Иран) (124 км)
Погода в Ардебиле (Иран) (136 км)
Погода в Казвине (Иран) (144 км)
Погода в Лянкяране (Азербайджан) (151 км)
Погода в Миане (Иран) (156 км)
Погода в Серабе (Иран) (178 км)
Погода в Ноушехре (Иран) (202 км)

Пояснения к столбцам:

Ветер - указаны скорость ветра в м/с - средняя за 10 мин, порывы в срок и между сроками (в фигурных скобках) и направление, откуда дует ветер: С - северный, СВ - северо-восточный, В - восточный, ЮВ - юго-восточный, Ю - южный, ЮЗ - юго-западный, З - западный, СЗ - северо-западный.
Видимость - горизонтальная дальность видимости в метрах или километрах. При видимости от 1 до 10 км при отсутствии осадков обычно наблюдается дымка, при ухудшении видимости до 1 км и менее - туман. В сухую погоду видимость может ухудшаться дымом, пылью или мглою.
Явления - указаны атмосферные явления, наблюдавшиеся в срок или в последний час перед сроком; фигурными скобками обозначены явления, наблюдавшиеся между сроками (за 1-3 часа до срока); квадратными скобками обозначены град или гололедные отложения с указанием их диаметра в мм.
Облачность - указаны через наклонную черту общая и нижняя облачность в баллах и высота нижней границы облаков в метрах; квадратными скобками обозначены формы облаков: Ci - перистые, Cs - перисто-слоистые, Cc - перисто-кучевые, Ac - высококучевые, As - высокослоистые, Sc - слоисто-кучевые, Ns - слоисто-дождевые, Cu - кучевые, Cb - кучево-дождевые. Подробнее классификацию облаков см. в Атласе облаков (PDF).
T - Температура воздуха - температура, измеренная на высоте 2 м над землей.
Td - Температура точки росы - температура, при понижении до которой содержащийся в воздухе водяной пар достигнет насыщения.
f - Относительная влажность воздуха - влажноcть воздуха, измеренная на высоте 2 м над землей.
Te - Эффективная температура - температура, которую ощущает одетый по сезону человек в тени. Характеристика душности погоды. При расчете учитывается влияние влажности воздуха и скорости ветра на теплоощущения человека.
Tes - Эффективная температура на солнце - температура, которую ощущает человек, с поправкой на солнечный нагрев. Характеристика знойности погоды. Зависит от высоты солнца над горизонтом, облачности и скорости ветра. Ночью, в пасмурную погоду, а также при ветре 12 м/с и более поправка равна нулю.
P - Атмосферное давление - приведенное к уровню моря атмосферное давление.
Po - Атмосферное давление - измеренное на уровне метеостанции атмосферное давление.
Tmin - Минимальная температура - минимум температуры воздуха на высоте 2 м над землей.
Tmax - Максимальная температура - максимум температуры воздуха на высоте 2 м над землей.
R - Количество осадков - Количество выпавших осадков за период времени, мм. При наведении курсора мыши на число - период времени, за который выпало указанное количество осадков.
R24 - Количество осадков - Количество выпавших осадков за 24 часа, мм.
S - Снежный покров - Высота снежного покрова, см. При наведении курсора мыши на число - состояние снежного покрова и степень покрытия местности в баллах.